Aérodrome :
LOGIN :

S'inscrire | Disclaimer

   EN    FR    IT 

 










Légende :    VFR   VFR Marginal   IFR   IFR Intensif   IFR Très Intensif
Visi : 
Plafond : 
>= 8 km
>= 3000ft
5 à 8 km
1000 à 3000 ft
1500m à 5 km
500 à 1000 ft
800 à 1500m
200 à 500 ft
< 800m
< 200 ft
Symboles :   Orages  Brouillard  Fortes neiges  Fortes précipitations  Vent > 20 kt
SIGMETs :   Divers  Orages  Givrage  Turbulence  Onde Orograph.  Cendres Volcan.






- Altitude de l'aérodrome : 1460 ft


LSMA - Alpnach

DERNIER METAR :
  • 251550Z AUTO VRB01KT 0600NDV R01/0600V0800U R19/P2000N BR OVC002 02/01 Q1021 RMK

METARs EXPIRÉS :
  • 251520Z AUTO 00000KT 3800NDV BR OVC002 02/02 Q1021 RMK
  • 251450Z AUTO VRB02KT 4700NDV OVC002 02/01 Q1021 RMK
  • 251420Z AUTO VRB02KT 5000NDV OVC003 02/02 Q1021 RMK
  • 251350Z AUTO 00000KT 4500NDV OVC002 02/01 Q1021 RMK
  • 251320Z AUTO VRB02KT 3600NDV OVC002 02/01 Q1022 RMK

Prévision TAF périmée.



MET'MAP, la Météo Aéronautique d'un coup d'oeil ! - Copyright ORBIFLY Décembre 2007 - Disclaimer

ORBIFLY MET'MAP TEAM :

Programmation & Développement : Alexandra Zaïnal
Sur une idée originale de : Baudouin d'Aumeries
Assistance à la programmation : Marc-Olivier Méhu
Soutien technique & logistique : Manuel Goepfert

Contact : metmap@orbifly.com




SOURCES & CREDITS :

   NOAA